SCP
-0 -0 0 -0 -0 -0 -0 -0 -0 0 0 0 0 0 0 0 0 0 0 0 0 0 0 0 0 0 0 0 0 0 0 0 0 0 0 0 0 0 0 0 -0 0 0
-0 -0 -0 -0 -0 -0 -0 -0 0 0 0 0 0 0 0 0 0 0 0 0 0 0 0 0 0 0 0 0 0 0 0 0 0 0 0 0 0 0 0 0 0 0 0
-0 -0 -0 -0 -0 -0 -0 -0 0 0 0 0 0 0 0 0 0 0 0 0 0 0 0 0 0 0 0 0 0 0 0 0 0 0 0 0 0 0 0 0 0 0 0
-0 0 0 0 -0 -0 -0 0 0 0 0 0 0 0 0 0 0 0 0 0 0 0 0 0 0 0 0 0 0 0 0 0 0 0 0 0 0 0 0 0 0 0 0
0 0 0 -0 -0 -0 -0 -0 0 0 0 0 0 0 0 0 0 0 0 0 0 0 0 0 0 0 0 0 0 0 0 0 0 0 0 0 0 0 0 0 0 0 0
0 0 0 0 0 0 0 0 0 0 0 0 0 0 0 0 0 0 0 0 0 0 0 0 0 0 0 0 0 0 0 0 0 0 0 0 0 0 0 0 0 0 0
0 0 0 0 0 0 0 0 0 0 0 0 0 0 0 0 0 0 0 0 0 0 0 0 0 0 0 0 0 0 0 0 0 0 0 0 0 0 0 0 0 0 0
0 0 0 0 0 0 0 0 0 0 0 0 0 0 0 0 0 0 0 0 0 0 0 0 0 0 0 0 0 0 0 0 0 0 0 0 0 0 0 0 0 0 0
0 0 0 0 0 0 0 0 0 0 0 0 0 0 0 0 0 0 0 0 0 0 0 0 0 0 0 0 0 0 0 0 0 0 0 0 0 0 0 0 0 0 0
0 0 0 0 0 0 0 0 0 0 0 0 0 0 0 0 0 0 0 0 0 0 0 0 0 0 0 0 0 0 0 0 0 0 0 0 0 0 0 0 0 0 0
0 0 0 0 0 0 0 0 0 0 0 0 0 0 0 0 0 0 0 0 0 0 0 0 0 0 0 0 0 0 0 0 0 0 0 0 0 0 0 0 0 0 0
0 0 0 0 0 0 0 0 0 0 0 0 0 0 0 0 0 0 0 0 0 0 0 0 0 0 0 0 0 0 0 0 0 0 0 0 0 0 0 0 0 0 0
0 0 0 0 0 0 0 0 0 0 0 0 0 0 0 0 0 0 0 0 0 0 0 0 0 0 0 0 0 0 0 0 0 0 0 0 0 0 0 0 0 0 0
0 0 0 0 0 0 0 0 0 0 0 0 0 0 0 0 0 0 0 0 0 0 0 0 0 0 0 0 0 0 0 0 0 0 0 0 0 0 0 0 0 0 0
0 0 0 0 0 0 0 0 0 0 0 0 0 0 0 0 0 0 0 0 0 0 0 0 0 0 0 0 0 0 0 0 0 0 0 0 0 0 0 0 0 0 0
0 0 0 0 0 0 0 0 0 0 0 0 0 0 0 0 0 0 0 0 0 0 0 0 0 0 0 0 0 0 0 0 0 0 0 0 0 0 0 0 0 0 0
0 0 0 0 0 0 0 0 0 0 0 0 0 0 0 0 0 0 0 0 0 0 0 0 0 0 0 0 0 0 0 0 0 0 0 0 0 0 0 0 0 0 0
0 0 0 0 0 0 0 0 0 0 0 0 0 0 0 0 0 0 0 0 0 0 0 0 0 0 0 0 0 0 0 0 0 0 0 0 0 0 0 0 0 0 0
0 0 0 0 0 0 0 0 0 0 0 0 0 0 0 0 0 0 0 0 0 0 0 0 0 0 0 0 0 0 0 0 0 0 0 0 0 0 0 0 0 0 0
0 0 0 0 0 0 0 0 0 0 0 0 0 0 0 0 0 0 0 0 0 0 0 0 0 0 0 0 0 0 0 0 0 0 0 0 0 0 0 0 0 0 0
0 0 0 0 0 0 0 0 0 0 0 0 0 0 0 0 0 0 0 0 0 0 0 0 0 0 0 0 0 0 0 0 0 0 0 0 0 0 0 0 0 0 0
0 0 0 0 0 0 0 0 0 0 0 0 0 0 0 0 0 0 0 0 0 0 0 0 0 0 0 0 0 0 0 0 0 0 0 0 0 0 0 0 0 0 0
0 0 0 0 0 0 0 0 0 0 0 0 0 0 0 0 0 0 0 0 0 0 0 0 0 0 0 0 0 0 0 0 0 0 0 0 0 0 0 0 0 0 0
0 0 0 0 0 0 0 0 0 0 0 0 0 0 0 0 0 0 0 0 0 0 0 0 0 0 0 0 0 0 0 0 0 0 0 0 0 0 0 0 0 0 0
0 0 0 0 0 0 0 0 0 0 0 0 0 0 0 0 0 0 0 0 0 0 0 0 0 0 0 0 0 0 0 0 0 0 0 0 0 0 0 0 0 0 0
0 0 0 0 0 0 0 0 0 0 0 0 0 0 0 0 0 0 0 0 0 0 0 0 0 0 0 0 0 0 0 0 0 0 0 0 0 0 0 0 0 0 0
Wind_Speed_500mb
28 34 30 28 26 21 21 18 12 12 9 7 6 6 6 8 11 10 1 7 8 16 13 14 15 15 17 19 17 13 15 16 8 13 12 6 8 11 11 9 3 6 7
32 38 33 29 29 22 19 14 10 11 13 13 12 10 8 7 7 7 3 2 9 11 12 15 15 15 16 16 16 16 18 16 14 12 9 10 13 13 13 11 2 4 9
33 39 35 32 30 28 17 15 12 10 9 8 7 5 4 4 4 3 4 7 6 5 8 12 12 14 15 17 19 20 18 16 18 19 16 15 11 16 12 10 5 5 9
33 32 38 34 30 24 21 18 14 13 10 8 6 6 5 4 2 2 3 6 12 16 17 16 15 17 19 17 17 16 18 16 19 18 18 21 9 20 13 11 6 9 8
28 31 32 34 28 23 22 17 15 14 12 9 7 5 4 2 2 2 4 6 9 13 16 19 21 23 26 24 25 25 20 22 24 19 22 19 16 24 17 16 10 9 12
27 26 24 21 22 22 21 20 19 15 12 8 5 3 3 6 8 9 11 13 14 17 19 21 23 24 23 25 28 30 30 33 33 30 32 29 32 32 24 21 19 16 15
27 23 24 24 23 22 21 20 17 15 12 10 9 9 10 13 16 17 17 18 19 22 24 25 25 27 27 26 26 27 30 30 30 22 30 30 33 32 35 32 30 25 23
27 24 23 23 23 23 21 19 17 16 14 14 14 14 16 18 19 20 21 21 21 22 25 27 28 28 28 29 28 29 28 26 24 22 16 33 34 29 31 38 35 31 31
28 26 22 24 28 26 25 23 20 18 17 16 16 16 17 17 18 20 21 22 23 25 26 27 30 31 31 31 29 28 28 28 25 26 28 41 37 31 36 35 39 40 38
28 29 27 26 26 29 29 26 24 22 19 18 19 18 18 18 19 20 21 22 23 26 29 30 32 32 33 34 33 33 31 29 33 33 25 40 34 32 37 39 38 34 36
32 32 31 32 32 30 31 29 28 25 24 22 21 20 19 20 20 22 22 24 25 26 29 32 33 34 34 37 36 35 33 36 34 35 34 44 37 36 38 39 37 38 38
35 37 36 34 33 32 32 28 28 27 26 24 23 23 22 23 23 24 25 27 28 30 33 34 35 36 34 34 36 35 35 38 35 37 41 43 41 42 41 40 38 37 38
32 35 39 37 37 34 34 31 30 29 28 27 26 25 25 25 25 26 28 30 32 34 35 37 39 40 38 36 35 36 37 36 37 38 44 41 40 40 43 45 45 43 39
37 37 40 40 38 38 37 34 34 32 31 30 29 27 26 26 27 28 30 32 34 35 37 39 40 39 40 41 39 37 37 36 37 38 42 43 41 40 39 39 41 44 46
39 39 41 42 42 40 39 38 37 36 32 31 28 27 26 27 29 31 33 35 37 38 39 39 41 41 40 40 41 40 38 37 36 37 37 40 38 38 39 39 38 39 40
44 43 43 43 43 43 40 40 38 36 34 31 30 28 27 28 30 33 36 38 39 40 41 42 41 40 39 39 38 37 37 36 35 35 31 36 32 34 37 39 38 39 39
43 45 47 47 47 47 44 42 40 39 35 33 31 28 28 27 30 32 34 37 40 41 42 42 41 40 37 34 35 35 34 33 34 33 29 26 27 29 30 31 32 33 35
46 47 52 54 53 51 48 46 43 41 36 34 31 30 28 28 29 31 35 37 40 40 40 39 38 39 37 34 32 29 31 31 32 30 27 25 24 23 25 25 25 27 28
50 51 49 56 57 54 53 49 44 41 38 37 34 32 32 31 33 36 40 42 43 42 39 38 36 35 34 34 32 29 29 30 30 27 27 28 30 27 25 22 22 23 22
48 48 49 54 57 58 56 51 47 45 42 40 37 36 35 36 38 40 42 42 39 37 37 37 37 34 33 32 32 29 27 28 27 25 25 27 28 26 24 21 19 19 18
51 50 51 54 56 58 57 53 49 44 42 41 41 40 39 41 43 43 41 40 39 37 38 38 37 34 28 26 24 18 21 22 23 27 27 27 27 24 22 21 21 20 22
42 46 49 51 53 53 51 47 41 36 38 36 42 41 42 44 45 42 41 40 42 41 39 37 33 29 26 25 16 16 10 15 23 28 30 30 27 24 21 19 21 22 21
37 40 44 46 49 49 48 48 45 41 41 40 43 44 46 44 45 45 45 46 45 42 37 35 31 27 22 19 20 14 9 9 11 26 33 31 27 26 21 20 22 21 19
34 36 39 42 42 45 46 43 41 38 33 27 33 38 44 48 47 49 48 47 44 41 37 33 29 29 26 18 21 21 23 16 6 8 23 34 38 36 30 26 23 20 18
36 35 37 38 40 41 40 40 40 39 37 39 43 43 45 46 49 46 46 43 41 38 35 34 32 30 32 30 25 26 23 19 22 13 9 12 23 34 33 26 23 20 18
39 37 36 36 35 36 37 39 40 41 39 40 39 39 38 38 40 40 39 39 38 37 34 32 34 32 32 30 30 29 26 17 11 18 18 21 27 25 24 23 20 18 19
Wind_Direction_500mb
159 173 169 186 195 195 207 206 158 147 149 151 136 155 196 209 229 249 279 79 179 186 208 228 219 226 237 253 248 245 242 244 242 230 235 272 321 339 342 350 358 60 183
157 171 181 189 197 200 217 180 168 149 135 127 120 114 111 107 106 117 155 134 122 156 194 211 226 233 230 234 226 232 242 231 235 242 272 286 306 325 331 352 330 210 187
165 175 186 196 206 214 208 191 188 178 164 150 140 128 111 122 131 185 219 228 234 228 234 238 241 254 264 260 243 238 242 245 237 242 246 273 276 293 315 330 272 206 197
168 175 197 201 208 216 190 189 186 184 182 171 158 130 127 124 131 172 223 231 241 253 257 262 259 256 262 264 258 260 253 244 246 241 239 245 253 283 287 281 286 223 213
158 193 202 205 204 201 192 191 190 191 188 187 186 177 163 172 203 264 275 267 265 264 265 263 260 256 257 255 254 258 251 247 256 251 259 258 248 272 276 270 264 245 229
158 202 192 197 197 193 193 192 198 200 205 211 226 253 288 296 298 295 287 280 273 270 269 270 270 265 260 262 265 264 257 260 261 260 263 253 260 250 274 268 264 253 238
154 197 190 194 195 198 196 200 206 210 214 230 250 268 286 296 299 298 293 288 285 284 282 280 276 274 273 268 264 267 270 266 263 266 258 252 250 253 253 272 263 254 251
164 162 202 200 200 202 203 205 210 219 225 239 256 273 285 291 294 295 296 295 292 288 285 284 284 283 281 278 273 268 264 266 263 254 242 255 246 240 243 246 242 249 251
172 173 195 199 204 208 208 208 215 224 232 245 261 273 282 286 289 292 294 296 297 296 294 292 291 289 286 283 281 278 272 264 258 256 249 251 263 242 241 239 238 242 250
183 189 196 206 206 213 214 215 222 232 242 253 264 272 278 284 288 292 295 298 301 300 300 299 295 291 288 284 280 277 274 267 255 258 253 258 257 253 248 247 243 243 250
197 201 208 211 210 215 221 220 227 235 245 254 263 270 272 276 281 284 288 293 295 298 299 300 300 298 296 289 283 279 274 266 264 257 251 258 254 253 249 250 251 252 245
208 209 216 220 221 221 230 228 235 239 246 253 257 260 264 271 278 284 289 293 296 300 300 301 301 301 298 295 293 286 276 270 265 259 256 260 257 254 253 253 253 252 251
212 214 218 222 225 226 232 233 235 239 244 248 252 257 264 270 276 282 288 294 299 301 303 304 304 303 301 297 290 287 281 276 269 265 262 260 257 255 254 253 255 257 256
208 215 222 224 225 227 232 233 237 240 244 248 252 258 266 273 280 284 287 291 293 296 299 301 302 301 299 297 292 286 279 275 269 265 266 265 260 257 257 256 255 255 257
210 212 224 224 226 229 230 233 236 241 243 249 256 262 270 277 282 287 291 293 295 296 297 299 299 299 298 295 293 289 283 275 268 266 263 266 263 259 256 254 252 252 254
217 216 224 228 228 231 232 235 238 241 244 248 255 263 269 277 285 291 295 296 297 298 299 299 298 296 295 293 291 286 282 277 270 264 261 268 260 255 251 250 250 250 250
222 223 226 232 229 231 231 234 237 240 242 248 255 261 271 280 288 291 293 295 296 299 300 300 301 299 297 292 289 285 281 275 269 263 256 255 256 251 251 250 248 248 250
222 225 227 230 230 229 229 231 233 239 242 249 254 262 270 280 289 292 294 294 294 295 295 296 297 298 297 292 287 280 275 270 266 261 252 237 236 243 241 244 245 246 247
225 222 224 228 229 227 226 229 232 237 241 248 253 260 271 282 291 294 295 294 293 292 292 292 293 294 292 288 283 280 272 264 260 254 243 229 229 227 232 232 238 244 251
232 230 225 227 226 223 225 227 231 236 240 247 252 259 270 279 287 291 293 293 293 291 291 290 292 290 288 284 281 278 268 260 249 236 231 225 222 220 225 232 245 254 264
238 233 223 222 222 220 221 223 229 235 241 247 253 261 270 278 286 289 287 286 288 289 289 290 289 288 282 278 285 289 271 255 236 218 221 220 217 219 231 242 255 266 275
230 221 215 215 217 217 218 220 225 233 239 246 256 264 271 278 281 283 281 282 284 286 288 288 285 281 276 273 255 236 239 259 234 226 218 216 221 226 237 257 271 275 277
213 209 207 209 212 212 215 219 226 233 245 254 262 269 274 276 280 281 280 281 281 282 280 278 277 272 260 262 252 224 240 244 201 243 225 221 224 234 242 278 281 274 271
195 196 196 202 204 210 217 223 229 238 247 257 253 267 274 279 280 280 279 278 276 275 273 269 267 260 258 240 257 246 227 223 222 223 230 234 238 241 255 277 276 263 257
188 185 191 197 203 211 217 224 232 239 247 252 263 269 272 276 279 277 277 276 273 270 265 263 259 256 252 244 237 238 243 238 233 222 222 252 249 248 253 264 256 242 239
187 187 190 197 204 213 221 230 240 246 251 259 266 270 274 275 276 279 275 272 269 265 262 260 259 256 254 249 245 243 240 219 217 229 244 248 249 258 251 250 233 226 235
Wind_Speed_850mb
28 34 30 28 26 21 21 18 12 12 9 7 6 6 6 8 11 10 1 7 8 16 13 14 15 15 17 19 17 13 15 16 8 13 12 6 8 11 11 9 3 6 7
32 38 33 29 29 22 19 14 10 11 13 13 12 10 8 7 7 7 3 2 9 11 12 15 15 15 16 16 16 16 18 16 14 12 9 10 13 13 13 11 2 4 9
33 39 35 32 30 28 17 15 12 10 9 8 7 5 4 4 4 3 4 7 6 5 8 12 12 14 15 17 19 20 18 16 18 19 16 15 11 16 12 10 5 5 9
33 32 38 34 30 24 21 18 14 13 10 8 6 6 5 4 2 2 3 6 12 16 17 16 15 17 19 17 17 16 18 16 19 18 18 21 9 20 13 11 6 9 8
28 31 32 34 28 23 22 17 15 14 12 9 7 5 4 2 2 2 4 6 9 13 16 19 21 23 26 24 25 25 20 22 24 19 22 19 16 24 17 16 10 9 12
27 26 24 21 22 22 21 20 19 15 12 8 5 3 3 6 8 9 11 13 14 17 19 21 23 24 23 25 28 30 30 33 33 30 32 29 32 32 24 21 19 16 15
27 23 24 24 23 22 21 20 17 15 12 10 9 9 10 13 16 17 17 18 19 22 24 25 25 27 27 26 26 27 30 30 30 22 30 30 33 32 35 32 30 25 23
27 24 23 23 23 23 21 19 17 16 14 14 14 14 16 18 19 20 21 21 21 22 25 27 28 28 28 29 28 29 28 26 24 22 16 33 34 29 31 38 35 31 31
28 26 22 24 28 26 25 23 20 18 17 16 16 16 17 17 18 20 21 22 23 25 26 27 30 31 31 31 29 28 28 28 25 26 28 41 37 31 36 35 39 40 38
28 29 27 26 26 29 29 26 24 22 19 18 19 18 18 18 19 20 21 22 23 26 29 30 32 32 33 34 33 33 31 29 33 33 25 40 34 32 37 39 38 34 36
32 32 31 32 32 30 31 29 28 25 24 22 21 20 19 20 20 22 22 24 25 26 29 32 33 34 34 37 36 35 33 36 34 35 34 44 37 36 38 39 37 38 38
35 37 36 34 33 32 32 28 28 27 26 24 23 23 22 23 23 24 25 27 28 30 33 34 35 36 34 34 36 35 35 38 35 37 41 43 41 42 41 40 38 37 38
32 35 39 37 37 34 34 31 30 29 28 27 26 25 25 25 25 26 28 30 32 34 35 37 39 40 38 36 35 36 37 36 37 38 44 41 40 40 43 45 45 43 39
37 37 40 40 38 38 37 34 34 32 31 30 29 27 26 26 27 28 30 32 34 35 37 39 40 39 40 41 39 37 37 36 37 38 42 43 41 40 39 39 41 44 46
39 39 41 42 42 40 39 38 37 36 32 31 28 27 26 27 29 31 33 35 37 38 39 39 41 41 40 40 41 40 38 37 36 37 37 40 38 38 39 39 38 39 40
44 43 43 43 43 43 40 40 38 36 34 31 30 28 27 28 30 33 36 38 39 40 41 42 41 40 39 39 38 37 37 36 35 35 31 36 32 34 37 39 38 39 39
43 45 47 47 47 47 44 42 40 39 35 33 31 28 28 27 30 32 34 37 40 41 42 42 41 40 37 34 35 35 34 33 34 33 29 26 27 29 30 31 32 33 35
46 47 52 54 53 51 48 46 43 41 36 34 31 30 28 28 29 31 35 37 40 40 40 39 38 39 37 34 32 29 31 31 32 30 27 25 24 23 25 25 25 27 28
50 51 49 56 57 54 53 49 44 41 38 37 34 32 32 31 33 36 40 42 43 42 39 38 36 35 34 34 32 29 29 30 30 27 27 28 30 27 25 22 22 23 22
48 48 49 54 57 58 56 51 47 45 42 40 37 36 35 36 38 40 42 42 39 37 37 37 37 34 33 32 32 29 27 28 27 25 25 27 28 26 24 21 19 19 18
51 50 51 54 56 58 57 53 49 44 42 41 41 40 39 41 43 43 41 40 39 37 38 38 37 34 28 26 24 18 21 22 23 27 27 27 27 24 22 21 21 20 22
42 46 49 51 53 53 51 47 41 36 38 36 42 41 42 44 45 42 41 40 42 41 39 37 33 29 26 25 16 16 10 15 23 28 30 30 27 24 21 19 21 22 21
37 40 44 46 49 49 48 48 45 41 41 40 43 44 46 44 45 45 45 46 45 42 37 35 31 27 22 19 20 14 9 9 11 26 33 31 27 26 21 20 22 21 19
34 36 39 42 42 45 46 43 41 38 33 27 33 38 44 48 47 49 48 47 44 41 37 33 29 29 26 18 21 21 23 16 6 8 23 34 38 36 30 26 23 20 18
36 35 37 38 40 41 40 40 40 39 37 39 43 43 45 46 49 46 46 43 41 38 35 34 32 30 32 30 25 26 23 19 22 13 9 12 23 34 33 26 23 20 18
39 37 36 36 35 36 37 39 40 41 39 40 39 39 38 38 40 40 39 39 38 37 34 32 34 32 32 30 30 29 26 17 11 18 18 21 27 25 24 23 20 18 19
Wind_Direction_850mb
159 173 169 186 195 195 207 206 158 147 149 151 136 155 196 209 229 249 279 79 179 186 208 228 219 226 237 253 248 245 242 244 242 230 235 272 321 339 342 350 358 60 183
157 171 181 189 197 200 217 180 168 149 135 127 120 114 111 107 106 117 155 134 122 156 194 211 226 233 230 234 226 232 242 231 235 242 272 286 306 325 331 352 330 210 187
165 175 186 196 206 214 208 191 188 178 164 150 140 128 111 122 131 185 219 228 234 228 234 238 241 254 264 260 243 238 242 245 237 242 246 273 276 293 315 330 272 206 197
168 175 197 201 208 216 190 189 186 184 182 171 158 130 127 124 131 172 223 231 241 253 257 262 259 256 262 264 258 260 253 244 246 241 239 245 253 283 287 281 286 223 213
158 193 202 205 204 201 192 191 190 191 188 187 186 177 163 172 203 264 275 267 265 264 265 263 260 256 257 255 254 258 251 247 256 251 259 258 248 272 276 270 264 245 229
158 202 192 197 197 193 193 192 198 200 205 211 226 253 288 296 298 295 287 280 273 270 269 270 270 265 260 262 265 264 257 260 261 260 263 253 260 250 274 268 264 253 238
154 197 190 194 195 198 196 200 206 210 214 230 250 268 286 296 299 298 293 288 285 284 282 280 276 274 273 268 264 267 270 266 263 266 258 252 250 253 253 272 263 254 251
164 162 202 200 200 202 203 205 210 219 225 239 256 273 285 291 294 295 296 295 292 288 285 284 284 283 281 278 273 268 264 266 263 254 242 255 246 240 243 246 242 249 251
172 173 195 199 204 208 208 208 215 224 232 245 261 273 282 286 289 292 294 296 297 296 294 292 291 289 286 283 281 278 272 264 258 256 249 251 263 242 241 239 238 242 250
183 189 196 206 206 213 214 215 222 232 242 253 264 272 278 284 288 292 295 298 301 300 300 299 295 291 288 284 280 277 274 267 255 258 253 258 257 253 248 247 243 243 250
197 201 208 211 210 215 221 220 227 235 245 254 263 270 272 276 281 284 288 293 295 298 299 300 300 298 296 289 283 279 274 266 264 257 251 258 254 253 249 250 251 252 245
208 209 216 220 221 221 230 228 235 239 246 253 257 260 264 271 278 284 289 293 296 300 300 301 301 301 298 295 293 286 276 270 265 259 256 260 257 254 253 253 253 252 251
212 214 218 222 225 226 232 233 235 239 244 248 252 257 264 270 276 282 288 294 299 301 303 304 304 303 301 297 290 287 281 276 269 265 262 260 257 255 254 253 255 257 256
208 215 222 224 225 227 232 233 237 240 244 248 252 258 266 273 280 284 287 291 293 296 299 301 302 301 299 297 292 286 279 275 269 265 266 265 260 257 257 256 255 255 257
210 212 224 224 226 229 230 233 236 241 243 249 256 262 270 277 282 287 291 293 295 296 297 299 299 299 298 295 293 289 283 275 268 266 263 266 263 259 256 254 252 252 254
217 216 224 228 228 231 232 235 238 241 244 248 255 263 269 277 285 291 295 296 297 298 299 299 298 296 295 293 291 286 282 277 270 264 261 268 260 255 251 250 250 250 250
222 223 226 232 229 231 231 234 237 240 242 248 255 261 271 280 288 291 293 295 296 299 300 300 301 299 297 292 289 285 281 275 269 263 256 255 256 251 251 250 248 248 250
222 225 227 230 230 229 229 231 233 239 242 249 254 262 270 280 289 292 294 294 294 295 295 296 297 298 297 292 287 280 275 270 266 261 252 237 236 243 241 244 245 246 247
225 222 224 228 229 227 226 229 232 237 241 248 253 260 271 282 291 294 295 294 293 292 292 292 293 294 292 288 283 280 272 264 260 254 243 229 229 227 232 232 238 244 251
232 230 225 227 226 223 225 227 231 236 240 247 252 259 270 279 287 291 293 293 293 291 291 290 292 290 288 284 281 278 268 260 249 236 231 225 222 220 225 232 245 254 264
238 233 223 222 222 220 221 223 229 235 241 247 253 261 270 278 286 289 287 286 288 289 289 290 289 288 282 278 285 289 271 255 236 218 221 220 217 219 231 242 255 266 275
230 221 215 215 217 217 218 220 225 233 239 246 256 264 271 278 281 283 281 282 284 286 288 288 285 281 276 273 255 236 239 259 234 226 218 216 221 226 237 257 271 275 277
213 209 207 209 212 212 215 219 226 233 245 254 262 269 274 276 280 281 280 281 281 282 280 278 277 272 260 262 252 224 240 244 201 243 225 221 224 234 242 278 281 274 271
195 196 196 202 204 210 217 223 229 238 247 257 253 267 274 279 280 280 279 278 276 275 273 269 267 260 258 240 257 246 227 223 222 223 230 234 238 241 255 277 276 263 257
188 185 191 197 203 211 217 224 232 239 247 252 263 269 272 276 279 277 277 276 273 270 265 263 259 256 252 244 237 238 243 238 233 222 222 252 249 248 253 264 256 242 239
187 187 190 197 204 213 221 230 240 246 251 259 266 270 274 275 276 279 275 272 269 265 262 260 259 256 254 249 245 243 240 219 217 229 244 248 249 258 251 250 233 226 235